Location: Madrid
(40.4167°N, 3.7036°W)
Time: 01:58:57
(UTC+00:00)

ISS - Pass Details

Date: 08 May 2026
Orbit: 414 x 424 km, 51.6° (Epoch: 15 May)

Event Time Altitude Azimuth Distance (km) Brightness Sun altitude
Rises 03:41:14 0° 305° (NW) 2,362 -0.1 -14.7°
Reaches altitude 10° 03:43:20 10° 303° (WNW) 1,497 -1.1 -14.3°
Maximum altitude 03:46:41 70° 220° (SW) 447 -3.9 -13.8°
Drops below altitude 10° 03:50:01 10° 135° (SE) 1,495 -0.9 -13.3°
Sets 03:52:07 0° 133° (SE) 2,357 0.2 -13.0°
